{"data":{"norad_id":55767,"epoch":"2026-09-20T22:18:50.027616Z","epoch_age_seconds":65942,"freshness":"FRESH","line1":"1 55767U 23028AC  26263.92974569  .00001957  00000+0  17178-3 0  9993","line2":"2 55767  69.9986  92.3714 0002629 268.2833  91.8024 14.98334142195756","mean_motion":14.98334142,"eccentricity":0.0002629,"inclination_deg":69.9986,"raan_deg":92.3714,"arg_perigee_deg":268.2833,"mean_anomaly_deg":91.8024,"bstar":0.00017178,"rev_number":19575,"period_min":96.106733447178,"perigee_km":570.21587983699,"apogee_km":573.8702845242,"semimajor_km":6950.1800821806,"source":"CELESTRAK","updated_at":"2026-09-21T09:00:33.316535Z"}}